Regional Weather Roundup
Issued by NWS

Home | Current Version | Previous Version | Text Only | Print | Product List | Glossary On
Versions: 1 2 3 4 5 6 7 8 9 10 11 12 13 14 15 16 17 18 19 20 21 22 23 24 25 26 27 28 29 30 31 32 33 34 35 36 37 38 39 40 41 42 43 44 45 46 47 48 49 50
000
ASUS43 KDTX 241910
RWRMI
MICHIGAN HOURLY REGIONAL WEATHER ROUNDUP
NATIONAL WEATHER SERVICE DETROIT/PONTIAC MI
300 PM EDT THU JUL 24 2014

NOTE: "FAIR" INDICATES FEW OR NO CLOUDS BELOW 12,000 FEET WITH NO
SIGNIFICANT WEATHER AND/OR OBSTRUCTION TO VISIBILITY.

MIZ047>049-052>055-059>063-066>070-074>076-081>083-242000-
SOUTHEAST LOWER MICHIGAN

CITY           SKY/WX    TMP DP  RH WIND       PRES   REMARKS
ADRIAN         MOSUNNY   74  47  38 VRB7G18   30.11S
ALMA           PTSUNNY   70  46  42 CALM      30.12F
ANN ARBOR      PTSUNNY   73  47  39 N12       30.10F
BAD AXE        MOSUNNY   71  44  38 N10       30.12S
DETROIT CITY   PTSUNNY   77  47  34 NW8       30.09F
DETROIT        PTSUNNY   75  48  38 NW7G17    30.10S
FLINT          PTSUNNY   72  47  40 NE9       30.11F
GROSSE ILE     MOSUNNY   73  48  40 NE12      30.08F
HILLSDALE      MOSUNNY   72  48  43 NE3G9     30.12S
HOWELL         PTSUNNY   71  45  40 NW6       30.12S

CITY           SKY/WX    TMP DP  RH WIND       PRES   REMARKS
JACKSON        MOSUNNY   71  52  50 VRB5      30.12F
LAMBERTVILLE   MOSUNNY   73  46  38 N9G16     30.10S
LANSING        PTSUNNY   71  47  42 N8        30.12F
LAPEER         NOT AVBL
MASON          PTSUNNY   71  50  46 NE8       30.12S
MONROE         PTSUNNY   72  48  43 N6        30.08S
MT. CLEMENS    PTSUNNY   74  51  44 N6        30.08F
PONTIAC        PTSUNNY   72  47  40 N9        30.10F
PORT HOPE        N/A     66  56  70 NE3       30.11F
PORT HURON     PTSUNNY   70  52  52 N9        30.11S
TRI CITIES     PTSUNNY   72  49  44 CALM      30.12F
YPSILANTI      MOSUNNY   79  46  31 N12       30.10F
$$
MIZ043>046-050>051-056>058-064>065-071>073-077>080-242000-
SOUTHWEST LOWER MICHIGAN

CITY           SKY/WX    TMP DP  RH WIND       PRES   REMARKS
BATTLE CREEK   MOSUNNY   74  48  39 VRB3      30.12F
BENTON HARBOR  SUNNY     68  53  58 NW12G17   30.14F
BIG RAPIDS     PTSUNNY   73  47  39 N6        30.12F
COLDWATER      MOSUNNY   72  48  42 N8        30.12F
HOLLAND        SUNNY     71  55  56 NW9       30.14F
GRAND RAPIDS   MOSUNNY   72  50  45 VRB5      30.13F
KALAMAZOO      MOSUNNY   74  48  39 VRB3      30.12F
MARSHALL       PTSUNNY   71  49  45 CALM      30.11F
MUSKEGON       MOSUNNY   71  47  42 W10       30.14F
$$
MIZ016>042-242000-
NORTHERN LOWER MICHIGAN

CITY           SKY/WX    TMP DP  RH WIND       PRES   REMARKS
ALPENA         MOSUNNY   74  49  41 N12       30.09F
BEAVER ISLAND  SUNNY     69  52  53 SW10G16   30.12S
BELLAIRE       SUNNY     72  49  44 W3        30.11F
CADILLAC       MOSUNNY   70  49  48 E6        30.12F
CHARLEVOIX     SUNNY     70  49  46 W10       30.15S
FRANKFORT      CLEAR     71  49  46 NW12      30.14S
GAYLORD        SUNNY     68  45  43 SE3       30.12F
GRAYLING       MOSUNNY   71  47  43 N7        30.13F
HARBOR SPRINGS SUNNY     67  51  56 SW9       30.12S
HOUGHTON LAKE  MOSUNNY   72  46  39 VRB6      30.13F
MANISTEE       SUNNY     70  45  40 NW13      30.15F
OSCODA         PTSUNNY   71  48  43 SE7       30.10S
PELLSTON       SUNNY     72  47  40 W9        30.11F
TRAVERSE CITY  MOSUNNY   71  46  40 VRB7      30.11F
$$
MIZ007>008-015-242000-
EASTERN UPPER MICHIGAN

CITY           SKY/WX    TMP DP  RH WIND       PRES   REMARKS
KINROSS        SUNNY     72  52  49 NW6       30.08F
MACKINAC ISLAN SUNNY     66  55  67 SW10G17   30.09F
NEWBERRY       MOSUNNY   73  52  48 SW3       30.08F
S. S. MARIE    SUNNY     69  50  50 W9        30.07F
$$
MIZ004>006-011>014-085-242000-
CENTRAL UPPER MICHIGAN

CITY           SKY/WX    TMP DP  RH WIND       PRES   REMARKS
MANISTIQUE     SUNNY     68  54  60 SW13G20   30.10F
ESCANABA       SUNNY     70  50  49 S14       30.10F
MENOMINEE      SUNNY     72  48  43 SE13      30.10F
SAWYER-GWINN   MOSUNNY   72  46  40 CALM      30.10F
$$
MIZ001>003-009>011-084-242000-
WESTERN UPPER MICHIGAN

CITY           SKY/WX    TMP DP  RH WIND       PRES   REMARKS
IRON MOUNTAIN  MOSUNNY   75  47  36 VRB5      30.09F
HOUGHTON       SUNNY     71  48  43 NW7       30.07F
COPPER HARBOR    N/A     65  53  65 N15       30.06F
$$

ABBREVIATIONS USED IN REMARKS
   TC - TEMPERATURE IN CELSIUS
  WCI - WIND CHILL INDEX
   HX - HEAT INDEX
  VSB - VISIBILITY



USA.gov is the U.S. government's official web portal to all federal, state and local government web resources and services.